Hourly Weather Kyzylkaynar

Today, 21 October, Wednesday

Time Temperature Precipitation Wind Pressure Humidity
00:00 +13°C° 0 mm 1 mps 700 mmHg 30%
01:00 +12°C° 0 mm 1 mps 699 mmHg 32%
02:00 +12°C° 0 mm 1 mps 699 mmHg 33%
03:00 +12°C° 0 mm 1 mps 700 mmHg 34%
04:00 +11°C° 0 mm 1 mps 700 mmHg 35%
05:00 +11°C° 0 mm 1 mps 700 mmHg 36%
06:00 +13°C° 0 mm 1 mps 701 mmHg 30%
07:00 +14°C° 0 mm 2 mps 701 mmHg 24%
08:00 +16°C° 0 mm 2 mps 702 mmHg 19%
09:00 +19°C° 0 mm 3 mps 702 mmHg 16%
10:00 +21°C° 0 mm 4 mps 703 mmHg 14%
11:00 +25°C° 0 mm 5 mps 703 mmHg 11%
12:00 +26°C° 0 mm 6 mps 703 mmHg 11%
13:00 +26°C° 0 mm 6 mps 703 mmHg 10%
14:00 +27°C° 0 mm 7 mps 703 mmHg 10%
15:00 +24°C° 0 mm 6 mps 703 mmHg 11%
16:00 +22°C° 0 mm 5 mps 702 mmHg 12%
17:00 +20°C° 0 mm 4 mps 702 mmHg 14%
18:00 +18°C° 0 mm 3 mps 702 mmHg 16%
19:00 +16°C° 0 mm 2 mps 702 mmHg 19%
20:00 +14°C° 0 mm 1 mps 702 mmHg 21%
21:00 +14°C° 0 mm 2 mps 701 mmHg 22%
22:00 +13°C° 0 mm 2 mps 701 mmHg 23%
23:00 +13°C° 0 mm 2 mps 701 mmHg 23%

Tomorrow, 22 October, Thursday

Time Temperature Precipitation Wind Pressure Humidity
00:00 +13°C° 0 mm 2 mps 701 mmHg 23%
01:00 +13°C° 0 mm 1 mps 701 mmHg 23%
02:00 +13°C° 0 mm 1 mps 701 mmHg 23%
03:00 +12°C° 0 mm 1 mps 701 mmHg 28%
04:00 +10°C° 0 mm 2 mps 701 mmHg 33%
05:00 +9°C° 0 mm 2 mps 702 mmHg 38%
06:00 +9°C° 0 mm 2 mps 702 mmHg 45%
07:00 +9°C° 0 mm 2 mps 703 mmHg 53%
08:00 +10°C° 0 mm 1 mps 703 mmHg 61%
09:00 +11°C° 0 mm 1 mps 703 mmHg 57%
10:00 +12°C° 0 mm 2 mps 704 mmHg 54%
11:00 +13°C° 0 mm 2 mps 704 mmHg 51%
12:00 +13°C° 0 mm 2 mps 704 mmHg 54%
13:00 +12°C° 0 mm 3 mps 703 mmHg 56%
14:00 +11°C° 0 mm 4 mps 703 mmHg 59%
15:00 +11°C° 0 mm 3 mps 703 mmHg 60%
16:00 +11°C° 0 mm 3 mps 703 mmHg 61%
17:00 +12°C° 0 mm 2 mps 703 mmHg 62%
18:00 +12°C° 0 mm 2 mps 703 mmHg 63%
19:00 +10°C° 0 mm 2 mps 703 mmHg 64%
20:00 +11°C° 0 mm 1 mps 703 mmHg 64%
21:00 +10°C° 0 mm 1 mps 702 mmHg 63%
22:00 +9°C° 0 mm 1 mps 702 mmHg 61%
23:00 +8°C° 0 mm 1 mps 702 mmHg 59%

Day after tomorrow, 23 October, Friday

Time Temperature Precipitation Wind Pressure Humidity
00:00 +8°C° 0 mm 1 mps 702 mmHg 56%
01:00 +7°C° 0 mm 1 mps 702 mmHg 52%
02:00 +7°C° 0 mm 1 mps 702 mmHg 48%
03:00 +7°C° 0 mm 1 mps 702 mmHg 48%
04:00 +7°C° 0 mm 1 mps 702 mmHg 48%
05:00 +7°C° 0 mm 1 mps 702 mmHg 48%
06:00 +7°C° 0 mm 1 mps 702 mmHg 47%
07:00 +8°C° 0 mm 1 mps 703 mmHg 46%
08:00 +8°C° 0 mm 1 mps 703 mmHg 45%
09:00 +8°C° 0 mm 2 mps 704 mmHg 45%
10:00 +9°C° 0 mm 2 mps 704 mmHg 45%
11:00 +10°C° 0 mm 3 mps 704 mmHg 44%
12:00 +10°C° 0 mm 3 mps 704 mmHg 45%
13:00 +10°C° 0 mm 3 mps 705 mmHg 46%
14:00 +10°C° 0 mm 3 mps 705 mmHg 47%
15:00 +9°C° 0.2 mm 3 mps 705 mmHg 53%
16:00 +9°C° 0.2 mm 2 mps 705 mmHg 59%
17:00 +8°C° 0.2 mm 2 mps 705 mmHg 65%
18:00 +7°C° 0.1 mm 2 mps 706 mmHg 70%
19:00 +7°C° 0.1 mm 2 mps 706 mmHg 74%
20:00 +6°C° 0.1 mm 2 mps 707 mmHg 78%
21:00 +6°C° 0 mm 2 mps 707 mmHg 79%
22:00 +5°C° 0 mm 2 mps 707 mmHg 79%
23:00 +5°C° 0 mm 2 mps 707 mmHg 79%

24 October, Saturday

Time Temperature Precipitation Wind Pressure Humidity
00:00 +4°C° 0 mm 2 mps 706 mmHg 80%
01:00 +4°C° 0 mm 2 mps 706 mmHg 81%
02:00 +3°C° 0 mm 2 mps 706 mmHg 82%
03:00 +4°C° 0 mm 1 mps 706 mmHg 81%
04:00 +4°C° 0 mm 1 mps 706 mmHg 81%
05:00 +3°C° 0 mm 1 mps 706 mmHg 80%
06:00 +4°C° 0 mm 1 mps 706 mmHg 74%
07:00 +6°C° 0 mm 1 mps 707 mmHg 68%
08:00 +7°C° 0 mm 1 mps 707 mmHg 62%
09:00 +8°C° 0 mm 1 mps 707 mmHg 56%
10:00 +9°C° 0 mm 1 mps 707 mmHg 51%
11:00 +10°C° 0 mm 2 mps 707 mmHg 45%
12:00 +10°C° 0 mm 2 mps 707 mmHg 43%
13:00 +12°C° 0 mm 2 mps 707 mmHg 41%
14:00 +13°C° 0 mm 2 mps 706 mmHg 39%
15:00 +12°C° 0 mm 2 mps 706 mmHg 42%
16:00 +10°C° 0 mm 2 mps 706 mmHg 44%
17:00 +9°C° 0 mm 2 mps 706 mmHg 47%
18:00 +8°C° 0 mm 2 mps 706 mmHg 50%
19:00 +8°C° 0 mm 1 mps 707 mmHg 54%
20:00 +8°C° 0 mm 1 mps 707 mmHg 57%
21:00 +7°C° 0 mm 1 mps 707 mmHg 59%
22:00 +7°C° 0 mm 1 mps 707 mmHg 60%
23:00 +6°C° 0 mm 1 mps 707 mmHg 62%

25 October, Sunday

Time Temperature Precipitation Wind Pressure Humidity
00:00 +6°C° 0 mm 1 mps 707 mmHg 64%
01:00 +5°C° 0 mm 1 mps 707 mmHg 66%
02:00 +5°C° 0 mm 1 mps 706 mmHg 68%
03:00 +5°C° 0 mm 1 mps 707 mmHg 67%
04:00 +5°C° 0 mm 1 mps 707 mmHg 67%
05:00 +5°C° 0 mm 1 mps 707 mmHg 66%
06:00 +6°C° 0 mm 1 mps 707 mmHg 59%
07:00 +8°C° 0 mm 1 mps 708 mmHg 52%
08:00 +9°C° 0 mm 1 mps 708 mmHg 45%
09:00 +11°C° 0 mm 1 mps 708 mmHg 40%
10:00 +13°C° 0 mm 1 mps 708 mmHg 34%
11:00 +15°C° 0 mm 1 mps 708 mmHg 28%
12:00 +16°C° 0 mm 1 mps 708 mmHg 27%
13:00 +16°C° 0 mm 2 mps 708 mmHg 25%
14:00 +17°C° 0 mm 2 mps 708 mmHg 24%
15:00 +16°C° 0 mm 2 mps 708 mmHg 28%
16:00 +14°C° 0 mm 2 mps 708 mmHg 31%
17:00 +13°C° 0 mm 2 mps 708 mmHg 35%
18:00 +11°C° 0 mm 1 mps 707 mmHg 38%
19:00 +10°C° 0 mm 1 mps 707 mmHg 41%
20:00 +8°C° 0 mm 1 mps 707 mmHg 45%
21:00 +8°C° 0 mm 1 mps 707 mmHg 45%
22:00 +8°C° 0 mm 1 mps 707 mmHg 46%
23:00 +7°C° 0 mm 1 mps 707 mmHg 47%

26 October, Monday

Time Temperature Precipitation Wind Pressure Humidity
00:00 +7°C° 0 mm 1 mps 707 mmHg 49%
01:00 +6°C° 0 mm 1 mps 706 mmHg 52%
02:00 +6°C° 0 mm 1 mps 706 mmHg 54%
03:00 +6°C° 0 mm 1 mps 706 mmHg 56%
04:00 +5°C° 0 mm 1 mps 706 mmHg 57%
05:00 +5°C° 0 mm 1 mps 706 mmHg 59%
06:00 +5°C° 0 mm 0 mps 706 mmHg 53%
07:00 +7°C° 0 mm 0 mps 706 mmHg 47%
08:00 +8°C° 0 mm 0 mps 706 mmHg 41%
09:00 +11°C° 0 mm 1 mps 706 mmHg 36%
10:00 +14°C° 0 mm 2 mps 706 mmHg 31%
11:00 +16°C° 0 mm 3 mps 706 mmHg 26%
12:00 +17°C° 0 mm 3 mps 706 mmHg 25%
13:00 +18°C° 0 mm 3 mps 706 mmHg 23%
14:00 +18°C° 0 mm 4 mps 705 mmHg 22%
15:00 +17°C° 0 mm 4 mps 705 mmHg 25%
16:00 +16°C° 0 mm 3 mps 705 mmHg 28%
17:00 +13°C° 0 mm 3 mps 704 mmHg 31%
18:00 +12°C° 0 mm 2 mps 704 mmHg 35%
19:00 +10°C° 0 mm 2 mps 703 mmHg 39%
20:00 +8°C° 0 mm 2 mps 703 mmHg 43%
21:00 +8°C° 0 mm 2 mps 703 mmHg 45%
22:00 +7°C° 0 mm 2 mps 702 mmHg 47%
23:00 +8°C° 0 mm 1 mps 702 mmHg 49%

27 October, Tuesday

Time Temperature Precipitation Wind Pressure Humidity
00:00 +7°C° 0 mm 1 mps 701 mmHg 51%
01:00 +7°C° 0 mm 1 mps 701 mmHg 53%
02:00 +6°C° 0 mm 1 mps 701 mmHg 55%
03:00 +6°C° 0 mm 1 mps 701 mmHg 57%
04:00 +4°C° 0 mm 0 mps 700 mmHg 58%
05:00 +4°C° 0 mm 0 mps 700 mmHg 60%
06:00 +5°C° 0 mm 0 mps 700 mmHg 53%
07:00 +7°C° 0 mm 0 mps 700 mmHg 47%
08:00 +8°C° 0 mm 0 mps 701 mmHg 40%
09:00 +11°C° 0 mm 1 mps 701 mmHg 35%
10:00 +13°C° 0 mm 1 mps 701 mmHg 31%
11:00 +15°C° 0 mm 1 mps 701 mmHg 26%
12:00 +16°C° 0 mm 2 mps 700 mmHg 24%
13:00 +17°C° 0 mm 2 mps 700 mmHg 23%
14:00 +18°C° 0 mm 2 mps 700 mmHg 21%
15:00 +16°C° 0 mm 1 mps 700 mmHg 25%
16:00 +15°C° 0 mm 1 mps 700 mmHg 29%
17:00 +13°C° 0 mm 1 mps 699 mmHg 33%
18:00 +12°C° 0 mm 1 mps 699 mmHg 34%
19:00 +12°C° 0 mm 1 mps 699 mmHg 34%
20:00 +11°C° 0 mm 1 mps 699 mmHg 34%
21:00 +11°C° 0 mm 1 mps 699 mmHg 33%
22:00 +11°C° 0 mm 1 mps 699 mmHg 31%
23:00 +11°C° 0 mm 1 mps 699 mmHg 29%
Show more

We Need Your Consent

Meteoprog and our Service Providers may store and access personal data such as cookies, device identifiers or other similar technologies on your device and process such data to personalise content and ads, as well as provide social media features and to analyse the traffic.

  • Store and/or access information on your device

    Cookies, device identifiers or other information can be stored or accessed on your device for the purposes indicated above.

  • Personalised ads and content, ad and content measurement, audience insights, and products development

    Ads and content can be personalised based on a profile. More data can be added to better personalise ads and content. Ad and content performance can be measured. Insights about the audience who saw the ads and content can be derived. Such data can be used to develop or improve user’s experience, systems and software.

By clicking ‘I Agree’ you will allow the use of indicated cookies, device identifiers, web beacons or other similar technologies. Your settings can be changed in the browser on your device.

For certain purposes, legitimate interests may be relied on, rather than consent. You can read more about this in our Privacy and Cookie Policy.